Date,TemperatureHighF,TemperatureAvgF,TemperatureLowF,DewpointHighF,DewpointAvgF,DewpointLowF,HumidityHigh,HumidityAvg,HumidityLow,PressureMaxIn,PressureMinIn,WindSpeedMaxMPH,WindSpeedAvgMPH,GustSpeedMaxMPH,PrecipitationSumIn
2013-3-1,35.0,32.8,30.0,35.0,32.8,30.0,100,100,100,29.98,29.88,42,4,42,0.03
2013-3-2,30.0,27.4,26.0,30.0,25.8,23.1,100,94,85,30.05,29.95,75,21,75,0.00
2013-3-3,32.0,26.9,20.0,26.4,23.1,17.5,99,86,68,30.05,30.00,75,25,75,0.00
2013-3-4,44.0,31.6,16.0,29.6,23.1,14.8,97,73,48,30.12,29.93,75,10,75,0.00
2013-3-5,43.0,38.0,30.0,43.0,34.4,27.5,100,88,63,29.93,29.52,75,12,75,0.63
2013-3-6,31.0,28.9,27.0,31.0,28.9,27.0,100,100,98,30.24,29.68,42,15,44,0.00
2013-3-7,35.0,31.6,29.0,32.1,29.7,28.1,100,93,82,30.38,30.21,75,3,75,0.01
2013-3-8,49.0,36.8,26.0,33.1,29.0,24.8,95,75,51,30.43,30.32,75,20,75,0.01
2013-3-9,62.0,45.8,31.0,39.6,33.3,27.7,89,64,38,30.33,30.03,75,7,75,0.00
2013-3-10,67.0,58.9,52.0,38.8,36.3,33.8,53,43,32,30.05,29.83,44,28,44,0.00
2013-3-11,61.0,49.4,38.0,55.0,44.2,35.6,100,85,42,29.87,29.63,75,15,75,0.94
2013-3-12,46.0,38.2,33.0,36.4,31.5,26.8,94,77,59,30.04,29.87,47,11,47,0.00
2013-3-13,38.0,30.1,26.0,32.5,25.4,19.4,99,83,63,30.32,30.01,75,18,75,0.00
2013-3-14,44.0,32.1,21.0,30.5,22.5,18.6,95,71,39,30.36,30.17,73,3,73,0.00
2013-3-15,57.0,43.5,31.0,43.1,36.0,28.7,92,76,58,30.18,29.74,75,4,75,0.00
2013-3-16,68.0,56.8,43.0,52.7,47.3,40.3,91,71,50,29.96,29.64,25,8,25,0.00
2013-3-17,43.0,34.5,32.0,40.8,34.0,32.0,100,98,91,30.08,29.89,23,6,23,0.82
2013-3-18,54.0,43.7,33.0,54.0,43.4,33.0,100,99,87,29.90,29.61,32,9,32,1.18
2013-3-19,45.0,38.0,31.0,36.4,26.3,14.6,97,67,30,30.12,29.84,32,10,32,0.00
2013-3-20,43.0,33.1,23.0,26.1,18.8,11.0,73,56,40,30.11,29.92,75,9,75,0.00
2013-3-21,33.0,24.1,19.0,19.2,14.3,10.8,85,67,43,30.01,29.91,75,4,75,0.00
2013-3-22,46.0,30.5,16.0,25.6,18.3,11.5,90,63,38,30.06,29.96,44,2,44,0.00
2013-3-23,57.0,43.2,35.0,29.9,26.8,23.1,77,54,34,30.01,29.79,75,3,75,0.00
2013-3-24,42.0,36.9,33.0,39.0,32.1,24.7,100,85,53,29.81,29.30,65,6,65,1.39
2013-3-25,38.0,31.5,29.0,38.0,31.4,28.0,100,100,95,29.93,29.39,27,12,27,0.01
2013-3-26,38.0,33.1,31.0,35.7,31.2,27.2,100,93,78,30.23,29.92,38,8,38,0.02
2013-3-27,42.0,35.4,27.0,30.7,27.0,24.5,92,72,54,30.32,30.21,27,5,27,0.00
2013-3-28,51.0,38.7,27.0,30.6,27.1,22.5,89,64,43,30.35,30.26,75,3,75,0.00
2013-3-29,57.0,42.2,29.0,41.0,32.1,24.8,89,70,38,30.31,30.17,75,8,75,0.00
2013-3-30,60.0,45.9,30.0,48.6,37.7,29.0,100,77,44,30.23,29.93,75,8,75,0.00
2013-3-31,58.0,49.5,46.0,51.5,45.6,40.5,100,87,64,29.93,29.78,75,10,75,0.08